ONEWEB-0430 (50501 NORAD) Tracking and Keplerian Element Data
This shows tracking and keplerian element data for the satellite.
Feedback or suggestion? Click here.
Element | Value |
Catalog | 50501 |
Name | ONEWEB-0430 |
Epoch Orbit | 130 |
Epoch Day | 140.58334491 |
Epoch Year | 2022 |
RAAN | 305.3966 |
Inclination | 87.2277 |
Eccentricity | 0.0005359 |
Argument of Perigee | 93.6149 |
Mean Anonmoly | 127.7737 |
Mean Motion | 14.92508807 |
Decay Rate | -0.00061107 |
L1 | 1 50501U 21132AJ 22140.58334491 -.00061107 00000+0 -60160-2 0 9997 |
L2 | 2 50501 87.2277 305.3966 0005359 93.6149 127.7737 14.92508807 1304 |
Live tracking and technical data element details for ONEWEB-0430 (NORAD 50501). ONEWEB-0430 can be tracked NOW for your location showing map with azimuth and elevation plus other details from your city location.
Track the satellite on the map from your city or location and see movement details for azimuth, elevation, latitude, longitude, range, height, and movement on the map or in text.
IsCatalogInMostPopularTable: catalog: 50501, numindb: 23
Update: records affected: 1
GetName: 50501 ONEWEB-0430
Hit Count: updated at: Mon, 23 May 2022 21:08:31 GMT